Location: Wojcin
(51.3330°N, 20.0330°E)
Time: 20:50:36
(UTC+01:00)

ISS - Visible Passes

Search period start: 24 March 2023 00:00
Search period end: 03 April 2023 01:00
Orbit: 414 x 422 km, 51.6° (Epoch: 24 March)

Date Brightness Start Highest point End Pass type
(mag) Time Alt. Az. Time Alt. Az. Time Alt. Az.
24 Mar -3.8 18:43:13 10° W 18:46:35 87° N 18:49:49 11° E visible
24 Mar -3.2 20:20:03 10° W 20:22:45 54° W 20:22:45 54° W visible
25 Mar -3.8 19:32:08 10° W 19:35:30 89° N 19:36:46 35° E visible
25 Mar -0.9 21:09:00 10° W 21:09:42 15° W 21:09:42 15° W visible
26 Mar -3.7 19:44:11 10° W 19:47:32 84° N 19:50:45 11° E visible
26 Mar -2.9 21:20:59 10° W 21:23:41 43° WSW 21:23:41 43° WSW visible
27 Mar -3.7 20:32:59 10° W 20:36:20 65° SSW 20:37:38 33° SE visible
27 Mar -0.8 22:10:13 10° W 22:10:34 12° W 22:10:34 12° W visible
28 Mar -3.7 19:44:59 10° W 19:48:20 80° SSW 19:51:34 11° ESE visible
28 Mar -2.2 21:21:56 10° W 21:24:30 26° SW 21:24:30 26° SW visible
29 Mar -2.8 20:33:46 10° W 20:36:55 37° SSW 20:38:26 23° SSE visible
30 Mar -3.2 19:45:38 10° W 19:48:55 51° SSW 19:52:10 10° SE visible
30 Mar -1.3 21:23:20 10° WSW 21:25:07 14° SW 21:25:19 14° SW visible
31 Mar -1.7 20:34:41 10° W 20:37:12 20° SW 20:39:17 12° S visible
01 Apr -2.1 19:46:17 10° W 19:49:13 28° SSW 19:52:07 10° SSE visible
